Date_and_time,latitude,longitude,wind_speed,RelWindDirFrom,WindDirFrom,air_pressure,air_temperature,relative_humidity,Temp,platform_speed_wrt_ground,air_pressure_at_mean_sea_level,platform_orientation
2018-09-13 23:50,50.6304433333333,-96.9807733333333,6.3,10.1,297,985.71,13.7,99,16.15,0.0,1012.18,156.5
2018-09-14 00:00,50.6304433333333,-96.9807733333333,5.1,8.9,295,985.83,13.7,99,16.15,0.0,1012.30,311.7
2018-09-14 00:10,50.630445,-96.9807716666667,4.4,7.7,293,986.01,13.6,99,16.14,0.0,1012.49,311.7
2018-09-14 00:20,50.630445,-96.98077,4.7,7.4,292,986.04,13.6,98,16.14,0.0,1012.51,311.7
2018-09-14 00:30,50.6304516666667,-96.9807733333333,4.0,6.3,300,985.81,13.6,98,16.14,0.0,1012.28,311.7
2018-09-14 00:40,50.6304483333333,-96.98076,2.9,5.2,305,985.75,13.5,99,16.14,0.0,1012.22,311.7
2018-09-14 00:50,50.630445,-96.9807666666667,2.2,4.1,320,985.63,13.4,99,16.15,0.0,1012.10,311.7
2018-09-14 01:00,50.6304516666667,-96.9807666666667,1.1,2.2,18,985.47,13.5,99,16.15,0.0,1011.93,42.8
2018-09-14 01:10,50.63044,-96.98077,2.1,3.9,287,985.75,13.4,99,16.14,0.0,1012.22,42.8
2018-09-14 01:20,50.6304666666667,-96.98076,2.3,3.2,270,986.05,13.2,99,16.14,0.0,1012.53,42.8
2018-09-14 01:30,50.6304366666667,-96.98077,2.1,2.8,255,986.22,13.1,99,16.14,0.0,1012.72,42.8
2018-09-14 01:40,50.630445,-96.9807816666667,2.1,3.1,256,986.42,12.9,99,16.13,0.0,1012.94,42.8
2018-09-14 01:50,50.630445,-96.9807733333333,2.9,4.0,252,986.81,12.8,100,16.13,0.0,1013.34,42.8
2018-09-14 02:00,50.630435,-96.9807683333333,3.4,4.9,266,986.92,12.8,100,16.13,0.0,1013.46,336.5
2018-09-14 02:10,50.6304383333333,-96.9807616666667,3.1,4.7,250,987.03,12.6,100,16.13,0.0,1013.58,336.5
2018-09-14 02:20,50.6304416666667,-96.980765,2.8,4.7,249,987.00,12.5,100,16.13,0.0,1013.55,336.5
2018-09-14 02:30,50.6304416666667,-96.980765,2.5,3.5,246,986.92,12.4,100,16.12,0.0,1013.48,336.5
2018-09-14 02:40,50.6304616666667,-96.9807783333333,3.6,4.8,254,986.93,12.4,100,16.12,0.0,1013.50,336.5
2018-09-14 02:50,50.630455,-96.9807733333333,4.3,6.0,262,987.10,12.4,100,16.11,0.0,1013.66,336.5
2018-09-14 03:00,50.63045,-96.9807733333333,4.1,5.9,263,987.18,12.4,100,16.11,0.0,1013.75,360.0
2018-09-14 03:10,50.63043,-96.9807633333333,2.1,5.3,267,987.02,12.3,100,16.11,0.0,1013.60,360.0
2018-09-14 03:20,50.6304466666667,-96.98077,2.0,3.2,249,986.96,12.3,100,16.11,0.0,1013.55,360.0
2018-09-14 03:30,50.6304483333333,-96.980765,3.4,6.8,270,987.24,12.2,100,16.11,0.0,1013.85,360.0
2018-09-14 03:40,50.630445,-96.9807616666667,5.1,7.7,281,987.60,12.1,100,16.11,0.0,1014.23,360.0
2018-09-14 03:50,50.6304433333333,-96.9807616666667,4.1,6.4,286,987.42,12.0,100,16.10,0.0,1014.05,360.0
2018-09-14 04:00,50.6304433333333,-96.9807616666667,3.7,5.6,285,987.35,12.1,100,16.10,0.0,1013.98,360.0
2018-09-14 04:10,50.6304433333333,-96.98076,3.5,6.3,273,987.66,12.1,100,16.09,0.0,1014.30,360.0
2018-09-14 04:20,50.6304433333333,-96.9807616666667,2.5,4.6,292,987.22,12.1,100,16.09,0.0,1013.85,360.0
2018-09-14 04:30,50.630445,-96.9807633333333,4.2,6.1,274,987.88,12.1,100,16.09,0.0,1014.54,360.0
2018-09-14 04:40,50.630445,-96.9807633333333,4.5,7.0,279,988.12,11.9,100,16.09,0.0,1014.78,360.0
2018-09-14 04:50,50.630445,-96.980765,4.5,6.6,277,988.32,11.8,100,16.08,0.0,1014.99,360.0
2018-09-14 05:00,50.630445,-96.980765,3.8,6.4,290,988.13,11.8,100,16.08,0.0,1014.81,38.0
2018-09-14 05:10,50.6304433333333,-96.980765,3.7,6.0,291,988.22,11.9,100,16.08,0.0,1014.90,38.0
2018-09-14 05:20,50.630445,-96.9807666666667,4.2,7.2,289,988.46,12.0,99,16.08,0.0,1015.14,38.0
2018-09-14 05:30,50.630445,-96.9807666666667,4.8,7.8,286,988.57,12.0,99,16.07,0.0,1015.26,38.0
2018-09-14 05:40,50.630445,-96.9807666666667,5.8,8.8,290,988.54,12.0,99,16.06,0.0,1015.23,38.0
2018-09-14 05:50,50.6304383333333,-96.9807733333333,5.5,8.9,293,988.49,12.0,99,16.06,0.0,1015.18,38.0
2018-09-14 06:00,50.6304383333333,-96.9807683333333,5.0,8.8,289,988.75,12.1,99,16.06,0.0,1015.44,165.5
2018-09-14 06:10,50.6304333333333,-96.980765,5.7,8.4,288,988.95,12.0,99,16.05,0.0,1015.65,165.5
2018-09-14 06:20,50.6304333333333,-96.9807666666667,5.3,8.5,292,989.14,11.9,99,16.05,0.0,1015.85,165.5
2018-09-14 06:30,50.6304333333333,-96.9807666666667,4.8,7.8,286,989.48,11.8,99,16.06,0.0,1016.21,165.5
2018-09-14 06:40,50.6304283333333,-96.9807766666667,4.4,8.3,286,989.60,11.7,99,16.05,0.0,1016.35,165.5
2018-09-14 06:50,50.63045,-96.9807716666667,4.8,7.9,291,989.50,11.6,99,16.04,0.0,1016.25,165.5
2018-09-14 07:00,50.63045,-96.9807716666667,4.5,6.6,296,989.49,11.6,99,16.04,0.0,1016.24,347.4
2018-09-14 07:10,50.6304466666667,-96.9807716666667,4.3,6.4,300,989.53,11.6,99,16.03,0.0,1016.27,347.4
2018-09-14 07:20,50.63043,-96.9807733333333,3.5,5.8,303,989.60,11.6,99,16.02,0.0,1016.35,347.4
2018-09-14 07:30,50.630435,-96.9807683333333,3.4,5.4,306,989.55,11.5,99,16.02,0.0,1016.30,347.4
2018-09-14 07:40,50.630445,-96.980765,4.1,5.6,304,989.52,11.4,99,16.02,0.0,1016.26,347.4
2018-09-14 07:50,50.6304416666667,-96.98077,4.4,6.6,291,989.62,11.3,99,16.02,0.0,1016.38,347.4
2018-09-14 08:00,50.63044,-96.980775,4.1,6.5,289,989.74,11.2,99,16.01,0.0,1016.51,270.0
2018-09-14 08:10,50.6304433333333,-96.980775,4.6,7.1,291,989.82,11.0,100,16.01,0.0,1016.60,270.0
2018-09-14 08:20,50.630445,-96.980765,5.9,8.0,296,989.83,10.9,100,16.00,0.0,1016.62,270.0
2018-09-14 08:30,50.6304416666667,-96.98078,6.1,8.5,296,989.89,10.9,100,16.00,0.0,1016.69,270.0
2018-09-14 08:40,50.6304416666667,-96.980775,6.0,8.8,292,990.02,10.8,100,16.00,0.0,1016.83,270.0
2018-09-14 08:50,50.6304416666667,-96.9807783333333,5.5,8.8,292,990.12,10.8,100,15.99,0.0,1016.93,270.0
2018-09-14 09:00,50.6304433333333,-96.9807766666667,4.7,6.9,287,990.31,10.8,99,15.98,0.0,1017.13,270.0
2018-09-14 09:10,50.6304416666667,-96.9807733333333,4.8,6.3,280,990.50,10.8,99,15.97,0.0,1017.33,270.0
2018-09-14 09:20,50.6304416666667,-96.9807716666667,4.8,7.0,271,990.69,10.5,100,15.97,0.0,1017.54,270.0
2018-09-14 09:30,50.6304416666667,-96.98077,5.5,7.0,272,990.82,10.4,100,15.96,0.0,1017.68,270.0
2018-09-14 09:40,50.6304416666667,-96.9807683333333,5.1,7.2,269,991.03,10.4,100,15.95,0.0,1017.90,270.0
2018-09-14 09:50,50.63044,-96.9807683333333,3.7,6.0,259,991.15,10.4,100,15.95,0.0,1018.04,270.0
2018-09-14 10:00,50.63044,-96.9807683333333,1.7,3.7,216,991.17,10.2,100,15.94,0.0,1018.06,165.5
2018-09-14 10:10,50.630435,-96.9807966666667,1.5,4.7,293,991.11,10.2,100,15.93,0.0,1018.01,165.5
2018-09-14 10:20,50.6304383333333,-96.98078,3.3,5.8,293,991.16,10.2,100,15.93,0.0,1018.07,165.5
2018-09-14 10:30,50.63044,-96.980775,4.4,6.5,292,991.28,10.2,100,15.92,0.0,1018.19,165.5
2018-09-14 10:40,50.63044,-96.9807783333333,3.2,5.9,291,991.56,10.2,100,15.91,0.0,1018.48,165.5
2018-09-14 10:50,50.6304233333333,-96.9807616666667,2.9,4.7,312,991.76,10.3,100,15.91,0.0,1018.68,165.5
2018-09-14 11:00,50.630465,-96.9807566666667,2.6,4.5,321,991.90,10.3,100,15.90,0.0,1018.82,20.1
2018-09-14 11:10,50.6304416666667,-96.98076,2.3,4.1,301,991.98,10.2,100,15.90,0.0,1018.93,20.1
2018-09-14 11:20,50.63044,-96.9807616666667,1.5,3.0,296,992.09,10.2,100,15.88,0.0,1019.04,20.1
2018-09-14 11:30,50.6304033333333,-96.980745,0.9,2.3,288,992.22,10.2,100,15.87,0.0,1019.18,20.1
2018-09-14 11:40,50.630435,-96.9807733333333,1.4,2.3,278,992.31,10.1,100,15.87,0.0,1019.27,20.1
2018-09-14 11:50,50.63044,-96.9807716666667,1.4,2.0,213,992.25,9.8,100,15.87,0.0,1019.23,20.1
2018-09-14 12:00,50.6304383333333,-96.98077,1.1,2.0,278,992.29,9.9,100,15.87,0.0,1019.27,90.0
2018-09-14 12:10,50.63044,-96.98077,1.7,2.8,322,992.26,9.9,100,15.87,0.0,1019.24,90.0
2018-09-14 12:20,50.6304466666667,-96.980775,1.7,2.7,327,992.32,10.1,100,15.87,0.0,1019.29,90.0
2018-09-14 12:30,50.630445,-96.9807716666667,1.8,2.9,310,992.61,10.3,100,15.87,0.0,1019.58,90.0
2018-09-14 12:40,50.6304416666667,-96.98077,1.6,2.8,303,992.66,10.3,99,15.86,0.0,1019.62,90.0
2018-09-14 12:50,50.6304433333333,-96.9807716666667,2.1,2.9,272,992.78,9.9,100,15.85,0.0,1019.77,90.0
2018-09-14 13:00,50.6304433333333,-96.9807583333333,2.1,3.0,250,993.01,9.9,100,15.85,0.0,1020.02,90.0
2018-09-14 13:10,50.6304416666667,-96.980775,2.0,3.2,280,992.92,9.9,100,15.84,0.0,1019.92,90.0
2018-09-14 13:20,50.6304616666667,-96.980795,2.8,3.5,286,992.86,9.9,100,15.82,0.0,1019.86,90.0
2018-09-14 13:30,50.6304466666667,-96.9807816666667,2.3,3.3,269,992.98,9.8,100,15.82,0.0,1019.99,90.0
2018-09-14 13:40,50.630435,-96.9807583333333,1.5,2.6,284,992.92,10.2,100,15.80,0.0,1019.93,90.0
2018-09-14 13:50,50.6304183333333,-96.98075,2.4,3.5,267,993.10,10.6,99,15.79,0.0,1020.08,90.0
2018-09-14 14:00,50.63044,-96.9807633333333,2.2,3.4,268,993.14,10.8,99,15.79,0.0,1020.12,193.3
2018-09-14 14:10,50.6304383333333,-96.9807666666667,2.9,4.0,265,993.42,11.1,99,15.79,0.0,1020.38,193.3
2018-09-14 14:20,50.63044,-96.980765,3.2,4.4,249,993.57,11.2,99,15.78,0.0,1020.52,193.3
2018-09-14 14:30,50.6304383333333,-96.9807633333333,2.8,4.6,252,993.59,11.5,99,15.78,0.0,1020.52,193.3
2018-09-14 14:40,50.63044,-96.9807633333333,1.7,3.2,269,993.61,12.2,98,15.78,0.0,1020.53,193.3
2018-09-14 14:50,50.6304416666667,-96.980765,1.6,2.4,318,993.56,13.0,96,15.79,0.0,1020.45,193.3
2018-09-14 15:00,50.630425,-96.9807733333333,1.9,2.7,347,993.55,13.4,97,15.79,0.0,1020.42,203.5
2018-09-14 15:10,50.6304316666667,-96.9807716666667,2.7,3.7,353,993.69,13.7,98,15.79,0.0,1020.55,203.5
2018-09-14 15:20,50.63043,-96.980765,2.9,3.6,1,993.73,14.1,97,15.79,0.0,1020.57,203.5
2018-09-14 15:30,50.6304316666667,-96.980765,3.1,3.9,12,993.86,14.3,96,15.80,0.0,1020.67,203.5
2018-09-14 15:40,50.63043,-96.9807666666667,3.6,4.4,13,994.01,14.5,96,15.82,0.0,1020.80,203.5
2018-09-14 15:50,50.6304283333333,-96.9807683333333,4.0,5.1,30,994.03,14.7,95,15.83,0.0,1020.81,203.5
2018-09-14 16:00,50.63044,-96.98079,3.5,4.5,34,994.15,14.8,94,15.85,0.0,1020.90,270.0
2018-09-14 16:10,50.6304366666667,-96.9807883333333,3.7,5.3,28,994.14,14.9,94,15.86,0.0,1020.89,270.0
2018-09-14 16:20,50.6304266666667,-96.980785,3.2,4.3,37,994.16,14.8,95,15.85,0.0,1020.90,270.0
2018-09-14 16:30,50.630435,-96.980785,2.7,4.5,54,994.32,15.0,92,15.82,0.0,1021.02,270.0
2018-09-14 16:40,50.6304383333333,-96.9807833333333,4.5,6.7,69,994.34,15.5,86,15.81,0.0,1020.98,270.0
2018-09-14 16:50,50.6304383333333,-96.9807783333333,6.6,8.3,64,994.09,15.4,85,15.88,0.0,1020.71,270.0
2018-09-14 17:00,50.6304383333333,-96.9807783333333,7.0,8.4,71,994.13,15.2,88,15.97,0.0,1020.74,270.0
2018-09-14 17:10,50.6304383333333,-96.9807783333333,6.6,8.7,80,994.19,15.4,87,15.98,0.0,1020.78,270.0
2018-09-14 17:20,50.6304383333333,-96.9807783333333,6.7,9.0,87,994.14,15.9,84,15.96,0.0,1020.69,270.0
2018-09-14 17:30,50.6304366666667,-96.9807766666667,6.9,9.5,92,994.19,15.9,85,15.95,0.0,1020.74,270.0
2018-09-14 17:40,50.6304366666667,-96.9808033333333,7.5,9.7,100,994.24,16.2,82,15.92,0.0,1020.77,270.0
2018-09-14 17:50,50.6304383333333,-96.980775,7.3,9.6,100,994.27,16.4,82,15.92,0.0,1020.78,270.0
2018-09-14 18:00,50.6304383333333,-96.98077,6.7,8.3,109,994.31,16.2,83,15.89,0.0,1020.83,23.5
2018-09-14 18:10,50.6304366666667,-96.9807666666667,6.0,7.5,122,994.57,15.8,85,15.87,0.0,1021.11,23.5
2018-09-14 18:20,50.630435,-96.9808,6.0,7.8,125,994.58,15.6,87,15.89,0.0,1021.13,23.5
2018-09-14 18:30,50.6304316666667,-96.9807833333333,4.3,6.4,119,994.75,15.8,86,15.95,0.0,1021.27,23.5
2018-09-14 18:40,50.63043,-96.9807733333333,4.7,6.7,119,994.84,16.1,85,15.96,0.0,1021.35,23.5
2018-09-14 18:50,50.630435,-96.9807766666667,4.7,6.1,106,994.90,16.3,83,15.95,0.0,1021.41,23.5
2018-09-14 19:00,50.6304366666667,-96.9807733333333,4.0,6.7,102,994.87,16.9,80,15.93,0.0,1021.35,113.6
2018-09-14 19:10,50.630455,-96.980775,3.7,5.4,96,994.87,16.8,81,15.91,0.0,1021.33,113.6
2018-09-14 19:20,50.63045,-96.98077,3.9,5.6,93,994.84,17.3,77,15.92,0.0,1021.27,113.6
2018-09-14 19:30,50.6304433333333,-96.9807716666667,4.8,6.5,96,994.79,17.6,76,15.94,0.0,1021.20,113.6
2018-09-14 19:40,50.6304483333333,-96.9807766666667,5.9,7.6,101,994.83,17.6,76,15.93,0.0,1021.23,113.6
2018-09-14 19:50,50.6304466666667,-96.9807766666667,6.6,8.2,107,994.80,17.3,80,15.92,0.0,1021.22,113.6
2018-09-14 20:00,50.6304416666667,-96.9807766666667,6.4,8.1,110,994.85,16.9,82,16.03,0.0,1021.31,90.0
2018-09-14 20:10,50.63043,-96.9807666666667,7.8,10.1,108,994.73,16.9,81,16.17,0.0,1021.20,90.0
2018-09-14 20:20,50.6304633333333,-96.9807983333333,8.1,9.5,107,994.62,17.0,80,16.34,0.0,1021.06,90.0
2018-09-14 20:30,50.63044,-96.9807716666667,7.8,9.3,108,994.65,16.9,81,16.39,0.0,1021.09,90.0
2018-09-14 20:40,50.6304433333333,-96.9807633333333,7.0,8.1,117,994.75,16.7,82,16.26,0.0,1021.19,90.0
2018-09-14 20:50,50.630445,-96.9807666666667,8.1,9.1,114,994.72,17.0,81,16.22,0.0,1021.11,90.0
2018-09-14 21:00,50.6304433333333,-96.980765,7.6,9.0,113,994.73,17.2,81,16.47,0.0,1021.12,90.0
2018-09-14 21:10,50.6304433333333,-96.980765,8.1,9.6,120,994.78,17.0,82,16.38,0.0,1021.16,90.0
2018-09-14 21:20,50.6304416666667,-96.9807666666667,7.9,9.5,117,994.79,16.9,83,16.53,0.0,1021.17,90.0
2018-09-14 21:30,50.63044,-96.9807683333333,7.8,8.9,112,994.77,17.1,81,16.55,0.0,1021.13,90.0
2018-09-14 21:40,50.6304466666667,-96.980775,6.6,8.5,113,994.74,17.4,79,16.40,0.0,1021.10,90.0
2018-09-14 21:50,50.6304433333333,-96.9807733333333,6.9,8.2,118,994.87,17.5,79,16.31,0.0,1021.25,90.0
2018-09-14 22:00,50.6304266666667,-96.9807666666667,6.6,8.9,130,994.92,17.3,78,16.27,0.0,1021.31,165.5
2018-09-14 22:10,50.630435,-96.9807616666667,7.4,9.6,141,994.94,16.7,75,16.55,0.0,1021.36,165.5
2018-09-14 22:20,50.6304366666667,-96.980765,7.4,9.1,130,994.91,17.2,74,16.50,0.0,1021.31,165.5
2018-09-14 22:30,50.6304366666667,-96.9807666666667,7.3,10.1,124,994.86,17.4,75,16.40,0.0,1021.26,165.5
2018-09-14 22:40,50.6304366666667,-96.9807683333333,6.9,8.2,117,994.88,17.3,83,16.59,0.0,1021.26,165.5
2018-09-14 22:50,50.630415,-96.9807733333333,6.2,7.3,118,995.03,17.2,85,16.68,0.0,1021.41,165.5
2018-09-14 23:00,50.630465,-96.980795,6.2,8.0,128,994.95,17.2,82,16.71,0.0,1021.34,335.7
2018-09-14 23:10,50.6304516666667,-96.9807766666667,6.2,8.5,136,994.99,17.0,80,16.71,0.0,1021.40,335.7
2018-09-14 23:20,50.6304566666667,-96.9807816666667,5.1,6.8,137,995.05,17.0,79,16.72,0.0,1021.45,335.7
2018-09-14 23:30,50.6304466666667,-96.9807716666667,4.5,6.0,141,995.06,17.0,76,16.73,0.0,1021.44,335.7
2018-09-14 23:40,50.6304483333333,-96.9807733333333,5.5,6.3,144,995.04,16.8,76,16.79,0.0,1021.43,335.7
2018-09-14 23:50,50.6304483333333,-96.9807733333333,5.0,6.7,138,994.87,17.0,78,16.75,0.0,1021.26,335.7
